Weather History for North Adams, MA

Change the Weather History Date:

Friday, March 22, 2013

  Actual Average Record
Temperature  
Mean Temperature 23 °F -  
Max Temperature 33 °F 41 °F 79 °F (2012)
Min Temperature 14 °F 24 °F 10 °F (2002)
Degree Days  
Heating Degree Days 42    
Moisture  
Dew Point 14 °F    
Average Humidity 64    
Maximum Humidity 74    
Minimum Humidity 48    
Precipitation  
Precipitation 0.00 in - - ()
Sea Level Pressure  
Sea Level Pressure 29.72 in    
Wind  
Wind Speed 6 mph (West)    
Max Wind Speed 21 mph    
Max Gust Speed 29 mph    
Visibility 6 miles    
Events Snow    
Averages and records for this station are not official NWS values.
T = Trace of Precipitation, MM = Missing Value Source: NWS Daily Summary

Daily Weather History Graph

Daily Weather History Graph

Search for Another Location

Airport:

Trip Planner

Search our weather history database for the weather conditions in past years. The results will help you decide how hot, cold, wet, or windy it might be!

Date:

Astronomy

Mar. 22, 2013 Rise Set
Actual Time 6:52 AM EDT 7:07 PM EDT
Civil Twilight 6:23 AM EDT 7:35 PM EDT
Nautical Twilight 5:50 AM EDT 8:08 PM EDT
Astronomical Twilight 5:16 AM EDT 8:42 PM EDT
Moon 2:26 PM EDT (3/22) 3:56 AM EDT (3/22)
Length of Visible Light 13h 11m
Length of Day
12h 15m
Waxing Gibbous, 77% of the Moon is Illuminated
Mar 22
Waxing Gibbous
Mar 27
Full
Apr 3
Last Quarter
Apr 10
New
Apr 18
First Quarter

Hourly Weather History & Observations

Time (EDT) Temp. Windchill Dew Point Humidity Pressure Visibility Wind Dir Wind Speed Gust Speed Precip Events Conditions
12:52 AM 24.1 °F 15.2 °F 8.1 °F 51% 29.69 in 10.0 mi WSW 8.1 mph - N/A   Clear
1:52 AM 24.1 °F 18.2 °F 8.1 °F 51% 29.70 in 10.0 mi West 4.6 mph - N/A   Clear
2:52 AM 19.0 °F 12.3 °F 7.0 °F 59% 29.69 in 10.0 mi WNW 4.6 mph - N/A   Clear
3:52 AM 14.0 °F - 5.0 °F 67% 29.70 in 10.0 mi Calm Calm - N/A   Clear
4:52 AM 14.0 °F - 6.1 °F 71% 29.69 in 10.0 mi Calm Calm - N/A   Scattered Clouds
5:02 AM 14.0 °F - 6.8 °F 73% 29.66 in 10.0 mi Calm Calm - N/A   Mostly Cloudy
5:52 AM 14.0 °F - 7.0 °F 74% 29.70 in 10.0 mi Calm Calm - N/A   Mostly Cloudy
6:42 AM 15.8 °F - 8.6 °F 73% 29.67 in 2.5 mi Calm Calm - 0.00 in Snow Light Snow
6:52 AM 17.1 °F 10.0 °F 9.0 °F 71% 29.71 in 3.0 mi West 4.6 mph - 0.00 in Snow Light Snow
6:56 AM 17.6 °F 10.7 °F 8.6 °F 68% 29.68 in 1.8 mi West 4.6 mph - 0.00 in Snow Light Snow
7:04 AM 17.6 °F 10.7 °F 10.4 °F 73% 29.68 in 1.2 mi West 4.6 mph - 0.00 in Snow Light Snow
7:12 AM 17.6 °F 12.3 °F 10.4 °F 73% 29.68 in 1.8 mi West 3.5 mph - 0.00 in Snow Light Snow
7:19 AM 17.6 °F - 10.4 °F 73% 29.68 in 3.0 mi Calm Calm - 0.00 in Snow Light Snow
7:42 AM 19.4 °F - 12.2 °F 74% 29.69 in 2.0 mi Calm Calm - 0.00 in Snow Light Snow
7:52 AM 19.0 °F - 12.0 °F 74% 29.72 in 2.5 mi Calm Calm - 0.00 in Snow Light Snow
8:02 AM 19.4 °F - 12.2 °F 74% 29.69 in 4.0 mi Calm Calm - 0.00 in Snow Light Snow
8:24 AM 19.4 °F - 12.2 °F 74% 29.69 in 9.0 mi Calm Calm - 0.00 in   Overcast
8:31 AM 19.4 °F - 12.2 °F 74% 29.69 in 10.0 mi Calm Calm - 0.00 in   Overcast
8:52 AM 21.0 °F 13.4 °F 12.9 °F 71% 29.72 in 6.0 mi NNW 5.8 mph - 0.00 in   Haze
10:52 AM 27.0 °F - 17.1 °F 66% 29.73 in 10.0 mi Calm Calm - N/A   Overcast
11:52 AM 28.9 °F 23.9 °F 17.1 °F 61% 29.73 in 9.0 mi WNW 4.6 mph - N/A   Overcast
12:34 PM 30.2 °F 24.3 °F 17.6 °F 60% 29.69 in 7.0 mi NNW 5.8 mph - 0.00 in   Overcast
12:52 PM 30.9 °F - 19.0 °F 61% 29.72 in 3.0 mi Calm Calm - 0.00 in Snow Light Snow
1:52 PM 30.9 °F 22.8 °F 19.9 °F 64% 29.71 in 3.0 mi West 9.2 mph - 0.00 in Snow Light Snow
2:08 PM 30.2 °F 22.6 °F 19.4 °F 64% 29.67 in 8.0 mi WSW 8.1 mph - 0.00 in   Overcast
2:25 PM 30.2 °F 19.8 °F 19.4 °F 64% 29.68 in 1.8 mi West 13.8 mph 19.6 mph 0.00 in Snow Light Snow
2:33 PM 30.2 °F 21.3 °F 21.2 °F 69% 29.68 in 1.2 mi West 10.4 mph 20.7 mph 0.00 in Snow Light Snow
2:37 PM 32.0 °F 24.2 °F 19.4 °F 60% 29.67 in 2.5 mi West 9.2 mph - 0.00 in Snow Light Snow
2:44 PM 32.0 °F 23.6 °F 19.4 °F 60% 29.67 in 7.0 mi WSW 10.4 mph 16.1 mph 0.00 in Snow Light Snow
2:52 PM 32.0 °F 21.6 °F 18.0 °F 56% 29.70 in 10.0 mi WSW 15.0 mph 23.0 mph 0.00 in   Overcast
3:52 PM 32.0 °F 22.5 °F 17.1 °F 54% 29.71 in 10.0 mi West 12.7 mph 24.2 mph N/A   Overcast
4:02 PM 30.2 °F 18.1 °F 19.4 °F 64% 29.68 in 1.5 mi West 18.4 mph 25.3 mph 0.00 in Snow Light Snow
4:12 PM 32.0 °F 24.8 °F 19.4 °F 60% 29.68 in 4.0 mi West 8.1 mph - 0.00 in Snow Light Snow
5:52 PM 32.0 °F 19.8 °F 14.0 °F 48% 29.73 in 10.0 mi West 20.7 mph 28.8 mph N/A   Overcast
6:52 PM 30.0 °F 18.7 °F 14.0 °F 51% 29.76 in 10.0 mi West 16.1 mph 28.8 mph N/A   Overcast
7:52 PM 28.9 °F 19.2 °F 14.0 °F 54% 29.79 in 10.0 mi West 11.5 mph 23.0 mph N/A   Overcast
8:52 PM 28.9 °F 21.1 °F 15.1 °F 56% 29.80 in 10.0 mi West 8.1 mph 17.3 mph 0.00 in   Overcast
9:21 PM 28.4 °F 21.2 °F 15.8 °F 59% 29.77 in 10.0 mi West 6.9 mph - N/A   Overcast
9:52 PM 28.0 °F 18.1 °F 16.0 °F 61% 29.80 in 10.0 mi West 11.5 mph 18.4 mph N/A   Overcast
10:45 PM 28.4 °F 18.5 °F 17.6 °F 64% 29.78 in 2.5 mi West 11.5 mph 24.2 mph 0.00 in Snow Light Snow
10:47 PM 28.4 °F 19.1 °F 17.6 °F 64% 29.78 in 3.0 mi West 10.4 mph 24.2 mph 0.00 in Snow Light Snow
10:52 PM 28.0 °F 17.5 °F 18.0 °F 66% 29.81 in 4.0 mi West 12.7 mph - 0.00 in Snow Light Snow
11:01 PM 28.4 °F 19.1 °F 17.6 °F 64% 29.77 in 6.0 mi West 10.4 mph 18.4 mph 0.00 in Snow Light Snow
11:08 PM 28.4 °F 18.0 °F 17.6 °F 64% 29.77 in 8.0 mi West 12.7 mph 18.4 mph 0.00 in   Overcast
11:52 PM 28.0 °F 17.0 °F 18.0 °F 66% 29.79 in 8.0 mi West 13.8 mph - 0.00 in Snow Light Snow